This is the latest recevied weather packets stored in our database for station/object W5GMO. If no packets are shown the sender has not sent any weather packets the latest 10 day(s).
| Time | Temp. | Humidity | Pressure | Rain* | Wind** | Luminosity | Snow |
|---|---|---|---|---|---|---|---|
| 1788129655 | 30° C | 1% | 1019 hPa | 0 mm | - | 15 W/m² | - |
| 1788129352 | 30.56° C | 1% | 1018.9 hPa | 0 mm | - | 18 W/m² | - |
| 1788129051 | 30.56° C | 1% | 1018.9 hPa | 0 mm | - | 26 W/m² | - |
| 1788128745 | 30.56° C | 1% | 1018.9 hPa | 0 mm | - | 60 W/m² | - |
| 1788128442 | 31.11° C | 1% | 1018.7 hPa | 0 mm | - | 109 W/m² | - |
| 1788128138 | 31.11° C | 1% | 1018.7 hPa | 0 mm | - | 111 W/m² | - |
| 1788127834 | 31.11° C | 1% | 1018.7 hPa | 0 mm | - | 148 W/m² | - |
| 1788127533 | 31.11° C | 1% | 1018.4 hPa | 0 mm | - | 144 W/m² | - |
| 1788127232 | 31.11° C | 1% | 1018.3 hPa | 0 mm | - | 152 W/m² | - |
| 1788126925 | 30.56° C | 1% | 1018.5 hPa | 0 mm | - | 113 W/m² | - |
| 1788126621 | 31.11° C | 1% | 1018.3 hPa | 0 mm | - | 87 W/m² | - |
| 1788126316 | 31.11° C | 1% | 1018.3 hPa | 0 mm | - | 199 W/m² | - |
| 1788126016 | 31.11° C | 1% | 1018.4 hPa | 0 mm | - | 261 W/m² | - |
| 1788125711 | 30.56° C | 1% | 1018.6 hPa | 0 mm | - | 280 W/m² | - |
| 1788125406 | 30.56° C | 1% | 1018.6 hPa | 0 mm | - | 140 W/m² | - |
| 1788125102 | 30.56° C | 1% | 1018.5 hPa | 0 mm | - | 120 W/m² | - |
| 1788124801 | 30.56° C | 1% | 1018.6 hPa | 0 mm | - | 77 W/m² | - |
| 1788124496 | 30.56° C | 1% | 1018.6 hPa | 0 mm | - | 57 W/m² | - |
| 1788124191 | 31.11° C | 1% | 1018.4 hPa | 0 mm | - | 68 W/m² | - |
| 1788123886 | 31.11° C | 1% | 1018.4 hPa | 0 mm | - | 79 W/m² | - |
| 1788123583 | 31.11° C | 1% | 1018.4 hPa | 0 mm | - | 139 W/m² | - |
| 1788123282 | 31.67° C | 1% | 1018.3 hPa | 0 mm | - | 125 W/m² | - |
| 1788122978 | 31.67° C | 1% | 1018.4 hPa | 0 mm | - | 315 W/m² | - |
| 1788122677 | 32.22° C | 1% | 1018.6 hPa | 0 mm | - | 261 W/m² | - |
| 1788122372 | 31.67° C | 1% | 1018.5 hPa | 0 mm | - | 476 W/m² | - |
* Rain latest hour (hover to see other rain measurements)
** Current wind speed in m/s (hover to see current wind gust speed)